Regional Weather Roundup
Issued by NWS Burlington, VT

Home | Current Version | Previous Version | Graphics & Text | Print | Product List | Glossary On
Versions: 1 2 3 4 5 6 7 8 9 10 11 12 13 14 15 16 17 18 19 20 21 22 23 24 25 26 27 28 29 30 31 32 33 34 35 36 37 38 39 40 41 42 43 44 45 46 47 48 49 50
000
ASUS41 KBTV 310810
RWRBTV
VERMONT REGIONAL WEATHER ROUNDUP
NATIONAL WEATHER SERVICE BURLINGTON VT
400 AM EDT FRI OCT 31 2014

NOTE: "FAIR" INDICATES FEW OR NO CLOUDS BELOW 12,000 FEET WITH NO
SIGNIFICANT WEATHER AND/OR OBSTRUCTIONS TO VISIBILITY.

* THESE REPORTS ARE NOT UNDER NWS QUALITY CONTROL AND/OR DO NOT
  REPORT WEATHER SUCH AS PRECIPITATION AND FOG.

VTZ001>019-310900-
_____VERMONT_____


CITY           SKY/WX    TMP DP  RH WIND       PRES   REMARKS
BURLINGTON     CLOUDY    42  32  67 NW3       30.02S
MONTPELIER     CLOUDY    38  33  82 CALM      30.03S
MORRISVILLE    CLOUDY    39  33  79 CALM      30.02S
ST. JOHNSBURY*   N/A     39  35  86 MISG      29.99S
LYNDONVILLE*   CLOUDY    39  32  76 CALM      30.00S
MIDDLEBURY*    PTSUNNY   40  36  86 CALM      30.01S
RUTLAND*       CLOUDY    39  36  87 CALM      30.00S
SPRINGFIELD    CLOUDY    41  37  86 N3        30.01F
HIGHGATE*      PTSUNNY   35  31  86 CALM      30.02S
NEWPORT*       CLOUDY    36  33  87 CALM      30.00S
BENNINGTON     PTSUNNY   33  30  88 S3        30.01S
SUTTON*          N/A     36 N/A N/A MISG        N/A

_____LAKE CHAMPLAIN_____


CITY           SKY/WX    TMP DP  RH WIND       PRES   REMARKS

$$

NYZ007-026>031-035-052-083-310900-
_____NORTHERN NEW YORK_____


CITY           SKY/WX    TMP DP  RH WIND       PRES   REMARKS
PLATTSBURGH    PTSUNNY   36  33  89 W3        30.02S
SARANAC LAKE   CLOUDY    29  28  96 CALM      29.97S
MASSENA        CLOUDY    37  30  75 CALM      30.05S
OGDENSBURG*    MOSUNNY   37  34  87 CALM      30.03S
POTSDAM*       CLOUDY    36  36 100 CALM      30.02F
WATERTOWN      MOSUNNY   33  28  81 E5        30.01S
FT DRUM        PTSUNNY   33  32  96 SE5       30.00S
ALBANY         FAIR      33  30  88 CALM      30.04S
GLENS FALLS    SUNNY     30  28  92 CALM      30.03S

$$
NHZ002-005-011-310900-
_____NEW HAMPSHIRE_____


CITY           SKY/WX    TMP DP  RH WIND       PRES   REMARKS
LEBANON        CLOUDY    41  36  82 CALM      30.00S
KEENE          PTSUNNY   36  28  75 CALM      30.01S
MT WASHINGTON  FOG       18  18 100 W21         N/A  VSB 1/16WCI   1
PLYMOUTH       CLOUDY    37  37 100 CALM      30.01S
WHITEFIELD     CLOUDY    37  35  92 CALM      29.99F

$$

_____REGIONAL QUEBEC LOCATIONS_____


CITY           SKY/WX    TMP DP  RH WIND       PRES   REMARKS
MONTREAL       CLOUDY    36  30  80 NW3       30.03S
QUEBEC CITY    CLOUDY    37  32  81 SW3       29.99R
SHERBROOKE     CLOUDY    36  34  93 CALM      29.99F

_____REGIONAL ONTARIO LOCATIONS_____


CITY           SKY/WX    TMP DP  RH WIND       PRES   REMARKS
OTTAWA         CLOUDY    34  28  80 W2        30.04S

______KEY______
VSB  - VISIBILITY IN MILES
WCI  - WIND CHILL INDEX
HX   - HEAT INDEX
$$
NNNN



USA.gov is the U.S. government's official web portal to all federal, state and local government web resources and services.